New Castle, DE

9:58 PM EDT on August 29, 2016 (GMT -0400)
New Castle County

Weather History for KILG - May, 2014

Change the Weather History Date:

Wednesday, May 21, 2014

  Actual Average Record
Temperature  
Mean Temperature 65 °F 64 °F  
Max Temperature 69 °F 74 °F 95 °F (1996)
Min Temperature 61 °F 54 °F 35 °F (2002)
Degree Days  
Heating Degree Days 0 3  
Month to date heating degree days 66 109  
Since 1 July heating degree days 5115 4778  
Cooling Degree Days 0 3  
Month to date cooling degree days 30 32  
Year to date cooling degree days 37 44  
Growing Degree Days 15 (Base 50)    
Moisture  
Dew Point 57 °F    
Average Humidity 81    
Maximum Humidity 93    
Minimum Humidity 68    
Precipitation  
Precipitation 0.24 in 0.13 in 2.94 in (1894)
Month to date precipitation 2.53 2.62  
Year to date precipitation 21.77 15.73  
Snow  
Snow 0.00 in 0.00 in 0.00 in (1894)
Month to date snowfall 0.0 0.0  
Since 1 July snowfall 56.1 20.2  
Snow Depth 0.00 in    
Sea Level Pressure  
Sea Level Pressure 29.98 in    
Wind  
Wind Speed 2 mph (SSE)    
Max Wind Speed 10 mph    
Max Gust Speed 12 mph    
Visibility 8 miles    
Events Rain    
T = Trace of Precipitation, MM = Missing Value Source: NWS Daily Summary

Daily Weather History Graph

Daily Weather History Graph

Search for Another Location

Airport or City:

Trip Planner

Search our weather history database for the weather conditions in past years. The results will help you decide how hot, cold, wet, or windy it might be!

Date:

Astronomy

May. 21, 2014 Rise Set
Actual Time 5:43 AM EDT 8:15 PM EDT
Civil Twilight 5:12 AM EDT 8:46 PM EDT
Nautical Twilight 4:33 AM EDT 9:25 PM EDT
Astronomical Twilight 3:50 AM EDT 10:08 PM EDT
Moon 1:22 AM EDT (5/21) 12:55 PM EDT (5/21)
Length of Visible Light 15h 34m
Length of Day
14h 32m
Waning Gibbous, 49% of the Moon is Illuminated
May 21
Waning Gibbous
May 28
New
Jun 5
First Quarter
Jun 13
Full
Jun 19
Last Quarter

Hourly Weather History & Observations

Time (EDT) Temp. Dew Point Humidity Pressure Visibility Wind Dir Wind Speed Gust Speed Precip Events Conditions
12:51 AM 63.0 °F 54.0 °F 72% 30.05 in 10.0 mi Calm Calm - 0.00 in   Overcast
1:51 AM 63.0 °F 55.9 °F 78% 30.03 in 10.0 mi Calm Calm - N/A   Overcast
2:51 AM 63.0 °F 54.0 °F 72% 30.00 in 10.0 mi SE 4.6 mph - N/A   Overcast
3:51 AM 63.0 °F 54.0 °F 72% 30.00 in 10.0 mi Calm Calm - N/A   Overcast
4:51 AM 63.0 °F 55.9 °F 78% 29.99 in 10.0 mi Calm Calm - N/A   Overcast
5:51 AM 63.0 °F 54.0 °F 72% 29.99 in 10.0 mi ESE 3.5 mph - N/A   Overcast
6:51 AM 63.0 °F 54.0 °F 72% 29.99 in 10.0 mi East 5.8 mph - 0.00 in Rain Light Rain
7:51 AM 64.0 °F 52.0 °F 65% 30.01 in 10.0 mi East 4.6 mph - 0.00 in   Mostly Cloudy
8:51 AM 62.1 °F 57.0 °F 84% 30.02 in 5.0 mi NW 3.5 mph - 0.01 in Rain Light Rain
9:51 AM 63.0 °F 55.0 °F 75% 30.02 in 8.0 mi ESE 4.6 mph - 0.04 in Rain Light Rain
10:51 AM 63.0 °F 54.0 °F 72% 30.02 in 9.0 mi Calm Calm - 0.00 in Rain Light Rain
11:51 AM 62.1 °F 54.0 °F 75% 30.01 in 6.0 mi Calm Calm - 0.06 in Rain Light Rain
12:51 PM 62.6 °F 55.4 °F 77% 29.99 in 10.0 mi South 5.8 mph - N/A   Overcast
1:51 PM 64.4 °F 57.2 °F 77% 29.99 in 10.0 mi WSW 4.6 mph - N/A Rain Light Rain
2:51 PM 66.9 °F 59.0 °F 76% 29.97 in 10.0 mi SW 3.5 mph - 0.00 in   Clear
3:51 PM 68.0 °F 57.0 °F 68% 29.96 in 10.0 mi Calm Calm - N/A   Mostly Cloudy
4:51 PM 66.2 °F 57.2 °F 73% 29.95 in 10.0 mi Calm Calm - N/A   Mostly Cloudy
5:51 PM 64.9 °F 57.9 °F 78% 29.95 in 9.0 mi SW 3.5 mph - 0.00 in Rain Light Rain
6:51 PM 64.9 °F 57.9 °F 78% 29.94 in 10.0 mi Calm Calm - 0.03 in Rain Light Rain
7:51 PM 64.0 °F 60.1 °F 87% 29.93 in 10.0 mi NE 3.5 mph - 0.00 in   Scattered Clouds
8:51 PM 63.0 °F 60.1 °F 90% 29.94 in 8.0 mi West 3.5 mph - N/A   Overcast
9:51 PM 64.0 °F 61.0 °F 90% 29.95 in 6.0 mi WNW 4.6 mph - 0.02 in Rain Light Rain
10:11 PM 63.0 °F 61.0 °F 93% 29.94 in 2.5 mi Calm Calm - 0.04 in Rain Rain
10:19 PM 63.0 °F 61.0 °F 93% 29.94 in 5.0 mi SSE 3.5 mph - 0.04 in Rain Light Rain
10:51 PM 63.0 °F 61.0 °F 93% 29.94 in 6.0 mi Calm Calm - 0.07 in   Overcast
11:51 PM 63.0 °F 61.0 °F 93% 29.91 in 6.0 mi Calm Calm - N/A   Overcast